Terug naar catalogus

DELTA 1 DEB

ActiefPO
NORAD 7907·DEBRIS·🇺🇸 United States

Gelanceerd Jul 23, 1972 vanaf Vandenberg Space Force Base

Loading…

Volgende Passages (komende 24 uur)

TLE

VersSource: Space-Track

Epoch: Sep 14, 2026, 15:13 UTC

1 07907U 72058BS  26257.63448285  .00000288  00000-0  13695-3 0  9992
2 07907  97.7112  33.1292 0267391 328.9287  29.6303 14.08561638592123

Volg DELTA 1 DEB in realtime met AllMySat

Download on the App Store